This is the latest recevied weather packets stored in our database for station/object DELTON-WX. If no packets are shown the sender has not sent any weather packets the latest 10 day(s).
| Time | Temp. | Humidity | Pressure | Rain* | Wind** | Luminosity | Snow |
|---|---|---|---|---|---|---|---|
| 1777706146 | 0° C | 80% | 983.5 hPa | 0 mm | - | - | - |
| 1777705274 | 0° C | 80% | 983.5 hPa | 0 mm | - | - | - |
| 1777704346 | 0° C | 78% | 984.6 hPa | 0 mm | - | - | - |
| 1777703466 | 0° C | 79% | 984.6 hPa | 0 mm | - | - | - |
| 1777702546 | 0° C | 79% | 984.6 hPa | 0 mm | - | - | - |
| 1777701687 | 0° C | 79% | 984.6 hPa | 0 mm | - | - | - |
| 1777700746 | 0° C | 77% | 983.7 hPa | 0 mm | - | - | - |
| 1777699865 | 0° C | 77% | 984.2 hPa | 0 mm | - | - | - |
| 1777698945 | 0.56° C | 77% | 984.2 hPa | 0 mm | - | - | - |
| 1777698077 | 0.56° C | 77% | 984.2 hPa | 0 mm | - | - | - |
| 1777697147 | 0.56° C | 70% | 983.8 hPa | 0 mm | - | - | - |
| 1777696263 | 0.56° C | 72% | 983.9 hPa | 0 mm | - | - | - |
| 1777695346 | 0.56° C | 72% | 983.9 hPa | 0 mm | - | - | - |
| 1777694476 | 0.56° C | 72% | 983.9 hPa | 0 mm | - | - | - |
| 1777693545 | 1.11° C | 69% | 983.3 hPa | 0 mm | - | - | - |
| 1777692665 | 1.11° C | 72% | 983 hPa | 0 mm | - | - | - |
| 1777691745 | 1.11° C | 72% | 983 hPa | 0 mm | - | - | - |
| 1777690875 | 1.11° C | 72% | 983 hPa | 0 mm | - | - | - |
| 1777689945 | 1.67° C | 67% | 982.4 hPa | 0 mm | - | - | - |
| 1777689063 | 1.67° C | 69% | 983.3 hPa | 0 mm | - | - | - |
| 1777688144 | 1.67° C | 69% | 983.3 hPa | 0 mm | - | - | - |
| 1777687270 | 1.67° C | 69% | 983.3 hPa | 0 mm | - | - | - |
| 1777686344 | 1.67° C | 65% | 983.6 hPa | 0 mm | - | - | - |
| 1777685461 | 2.22° C | 65% | 983.6 hPa | 0 mm | - | - | - |
| 1777684544 | 2.22° C | 65% | 983.6 hPa | 0 mm | - | - | - |
* Rain latest hour (hover to see other rain measurements)
** Current wind speed in m/s (hover to see current wind gust speed)